Wind_Speed
33 32 31 31 31 30 30 29 28 28 28 29 28 28 27 27 27 27 27 27 27 27 27 27 28 27 27 27 27 27 27 26 25 25 26 26 26 26 26 27 27 28 29 28 28 27 27 27 26 26 26 25 25 25 24 23 23 24 24 25 25 25 25 25 25 25 25 25 25
33 33 32 31 31 30 29 28 28 28 29 29 29 29 29 28 28 28 27 27 27 27 27 27 27 27 27 27 27 27 27 26 25 25 25 25 25 25 25 26 26 27 27 28 27 27 27 27 26 25 24 24 23 22 21 21 21 22 23 24 24 24 24 23 23 22 22 23 24
34 33 32 31 31 30 29 29 29 29 30 30 29 29 29 28 28 28 27 28 28 27 27 27 27 27 27 27 27 27 27 26 26 25 25 25 25 25 25 24 25 25 26 26 26 26 26 26 26 25 23 22 21 21 20 20 20 20 21 22 22 23 22 22 21 21 21 21 22
34 33 33 32 32 32 31 30 30 30 30 30 29 29 28 28 28 27 27 28 28 27 27 27 27 27 27 27 27 27 26 26 26 25 25 25 25 24 24 24 24 24 24 25 25 26 26 26 25 24 22 21 20 20 20 20 20 20 20 20 20 20 20 20 20 20 20 20 20
34 34 33 33 33 33 32 31 31 31 31 30 29 28 28 28 27 27 27 27 27 28 28 28 27 27 27 27 27 27 26 26 25 25 25 25 25 24 24 23 23 23 23 24 24 25 24 24 24 23 22 20 20 20 20 21 21 20 20 19 19 18 18 18 18 18 18 18 18
34 34 34 33 33 33 32 30 31 31 30 29 29 28 28 28 27 27 27 27 28 28 28 27 27 27 27 27 27 26 26 25 25 25 26 25 25 25 24 23 23 22 22 23 23 23 23 23 23 22 21 21 21 21 21 22 21 21 20 19 18 17 16 15 15 15 15 16 16
34 34 33 32 33 32 31 30 31 31 30 29 30 29 29 28 28 28 28 28 28 28 28 27 27 26 26 26 26 26 26 25 25 25 25 25 25 25 24 24 23 22 22 22 22 22 22 22 22 22 22 22 22 22 21 21 21 20 19 18 18 17 16 15 15 15 16 16 18
33 33 33 32 32 32 31 30 30 31 30 29 30 30 30 29 29 29 29 28 28 28 28 27 26 26 26 26 26 26 26 25 25 25 25 25 25 25 24 23 22 22 22 22 22 22 22 22 22 22 23 23 23 22 22 21 20 19 18 18 18 17 17 17 17 18 18 18 18
31 32 32 31 31 31 31 30 31 31 30 29 30 30 30 30 30 29 29 29 28 28 27 26 26 25 24 24 25 25 25 25 25 25 25 25 24 24 24 23 22 22 22 22 22 22 22 22 22 22 23 23 22 22 21 20 19 18 18 18 18 18 18 18 18 18 17 16 15
31 31 31 31 31 31 30 30 31 31 30 29 30 30 30 30 30 29 29 28 28 27 27 26 25 24 24 24 24 25 25 25 24 24 24 24 24 24 23 23 23 22 22 22 22 22 22 22 22 22 22 22 22 21 20 19 18 17 17 17 17 17 17 16 15 14 13 12 12
32 32 31 31 31 31 30 30 30 30 29 29 30 30 30 29 29 29 28 27 27 27 26 25 24 24 23 24 24 24 24 24 24 23 23 23 24 24 23 23 23 23 23 22 22 22 22 22 22 21 21 21 20 19 18 18 17 16 16 15 14 14 13 11 10 10 10 10 10
32 32 31 31 31 31 30 30 29 29 29 29 30 30 30 29 29 28 27 27 27 26 26 25 24 24 24 24 24 24 24 24 24 23 23 23 23 24 24 24 24 24 23 23 23 23 22 22 21 20 20 19 18 17 16 15 14 14 13 12 11 10 9 9 8 8 8 8 8
31 31 31 30 31 31 30 30 29 29 29 30 30 30 30 29 28 27 27 27 27 26 25 25 24 24 24 24 24 24 24 24 24 23 23 24 24 24 24 24 24 24 24 24 23 23 22 20 19 18 17 16 15 14 14 13 12 11 10 9 9 8 8 8 8 8 7 7 7
31 31 31 30 31 31 30 29 28 28 29 30 30 30 29 29 28 27 27 27 27 26 25 25 24 25 25 24 25 24 24 24 24 24 24 25 25 25 25 25 24 24 23 23 22 20 19 17 16 15 14 13 13 12 11 11 10 9 8 8 7 7 7 7 7 7 6 6 7
31 31 31 31 31 31 30 29 28 28 29 30 30 30 29 28 27 27 27 27 27 26 26 25 25 25 25 25 25 25 25 25 25 25 26 26 26 25 25 24 24 23 21 20 18 16 14 13 12 12 12 11 11 10 10 9 8 7 7 7 7 7 7 7 6 6 6 7 7
31 31 31 31 31 31 30 29 27 27 29 30 30 29 28 27 27 26 27 27 27 26 26 25 25 25 25 25 25 25 25 25 26 26 26 26 25 24 24 22 21 20 18 16 14 12 11 10 10 10 10 10 10 9 9 8 7 7 7 7 7 7 7 7 7 7 7 7 6
31 31 31 32 32 31 30 29 27 28 29 30 30 29 28 27 26 26 27 28 27 26 25 25 25 25 25 25 25 25 25 25 26 26 25 25 24 23 21 20 18 16 15 13 12 11 11 10 10 10 10 10 9 9 9 8 8 7 6 6 6 6 7 7 7 6 5 4 4
32 32 32 32 32 31 30 29 28 28 29 30 29 28 27 27 27 27 27 28 27 26 26 25 25 26 26 25 24 24 24 24 24 24 24 23 22 20 19 17 16 14 13 13 12 12 12 12 12 11 11 10 10 10 9 8 8 7 6 6 5 5 5 4 4 3 2 3 4
32 32 32 32 32 31 30 30 29 29 30 30 29 28 27 27 28 28 28 27 27 27 26 26 26 26 25 25 24 23 23 23 23 22 22 21 20 19 18 17 15 14 14 14 13 13 13 13 13 12 12 11 11 11 10 9 8 7 7 6 6 5 4 3 2 2 2 3 5
32 32 32 32 32 31 30 30 30 30 30 29 28 28 28 28 29 29 28 28 28 28 28 28 27 27 26 25 24 23 23 22 22 22 21 20 20 19 19 18 17 16 15 14 14 14 14 14 14 13 13 12 12 11 10 9 9 8 8 7 6 4 3 3 2 1 2 4 6
32 32 32 32 32 31 31 31 31 31 30 29 28 28 29 29 30 29 29 28 28 29 29 29 28 28 27 25 25 24 23 23 23 22 22 21 21 21 20 19 19 17 16 15 15 15 15 15 14 13 13 12 11 11 10 10 9 8 7 6 5 3 3 2 1 1 3 5 6
32 32 32 32 31 31 31 31 31 30 29 29 28 29 30 30 30 30 29 29 29 29 29 29 29 28 27 27 26 25 25 25 24 24 23 23 22 21 21 20 19 18 17 16 15 15 15 14 13 12 11 11 10 10 10 9 8 7 6 5 4 3 2 2 2 3 4 4 4
32 32 31 31 31 32 31 31 30 30 29 29 29 30 31 31 31 31 30 30 30 30 30 30 29 28 28 27 27 27 26 26 25 24 24 23 22 21 20 19 18 17 16 15 14 14 14 13 12 11 10 9 8 9 9 8 7 5 5 4 3 3 3 4 5 5 4 4 4
32 32 31 31 31 32 31 31 30 30 30 30 30 31 32 32 32 32 31 31 31 31 30 29 29 28 28 28 27 27 27 27 26 25 24 23 22 20 19 17 16 15 14 14 13 13 13 12 11 10 9 8 8 8 8 7 5 5 5 5 5 5 5 6 6 6 5 5 7
32 32 31 31 31 32 31 31 31 30 30 30 31 32 33 33 33 33 32 32 31 30 29 28 29 29 28 28 27 27 27 26 26 26 24 23 21 19 18 16 15 14 14 13 12 12 11 10 10 10 9 8 8 8 7 6 5 5 6 6 6 6 6 7 6 6 6 7 9
32 32 32 32 32 32 31 31 31 31 31 31 32 33 33 33 33 33 32 31 30 29 29 29 29 29 28 28 27 26 25 25 25 25 24 23 21 19 17 16 15 14 14 13 12 11 10 9 9 9 8 7 7 7 7 6 5 6 7 6 6 6 6 7 7 7 7 8 10
33 32 32 32 32 32 32 32 32 32 32 32 33 33 33 33 32 32 32 31 30 30 30 30 30 29 28 27 26 26 25 24 24 24 23 22 21 19 18 17 16 15 14 13 12 11 11 10 9 8 7 6 6 6 7 7 7 7 7 7 6 6 6 7 6 6 7 8 8
32 32 32 32 32 32 32 32 32 32 33 33 33 33 33 32 32 32 32 32 32 31 31 30 29 28 27 26 26 25 25 25 24 23 22 21 20 19 19 18 17 16 15 14 13 12 12 11 10 9 7 6 6 6 6 7 7 7 7 7 6 6 6 6 6 6 6 6 7
33 33 33 32 32 32 33 33 33 33 33 33 33 32 32 32 32 32 33 33 33 32 31 29 28 27 26 26 26 25 25 24 24 22 21 20 19 19 19 18 17 16 15 15 14 13 13 12 11 9 8 7 7 7 8 8 9 9 9 8 7 7 6 6 7 7 7 7 6
33 33 33 33 33 33 33 33 33 33 33 33 33 33 32 32 33 33 33 33 32 31 30 28 27 27 26 27 26 26 25 24 22 21 20 20 19 19 19 18 17 17 16 15 14 14 12 11 10 9 9 9 9 10 10 11 12 12 12 12 11 10 9 9 8 8 7 6 5
33 33 33 33 33 33 33 33 33 33 33 33 33 33 33 33 33 33 33 32 32 31 30 29 29 28 28 27 27 26 25 23 21 20 20 20 20 20 19 19 18 17 16 15 14 13 12 11 11 11 11 11 12 12 13 14 14 15 15 15 14 13 11 10 8 7 6 5 4
33 34 34 34 33 33 33 33 33 33 34 34 34 34 33 33 33 33 32 32 32 31 30 30 29 29 29 28 27 26 24 23 21 20 20 21 21 21 20 19 19 18 17 15 14 13 12 12 12 12 12 12 13 14 14 15 15 16 16 15 14 13 11 10 9 8 7 7 7
34 35 35 34 34 33 32 32 33 34 34 34 34 34 34 33 32 32 32 32 32 31 31 30 30 29 29 28 27 25 24 22 22 21 21 21 22 22 21 20 19 18 16 15 14 14 14 14 14 13 13 13 13 14 14 15 15 16 16 15 14 13 11 10 9 9 9 10 10
35 35 35 34 33 33 32 33 34 34 34 34 34 34 34 33 32 31 31 31 31 31 31 30 30 30 29 28 27 26 24 23 22 22 22 22 22 22 22 21 19 18 17 16 16 16 16 15 14 14 13 13 13 13 13 14 15 15 15 15 14 12 11 11 10 10 10 11 11
36 36 35 34 33 33 33 34 34 35 35 34 34 34 34 33 32 31 31 30 30 30 29 29 29 29 29 27 26 25 25 24 24 23 23 23 23 23 23 22 20 19 18 17 17 17 16 15 14 14 13 13 13 13 13 14 14 14 14 14 13 13 12 11 11 11 10 11 11
37 37 36 34 34 34 34 34 34 35 35 34 34 33 32 32 31 31 31 31 30 29 29 29 29 29 28 27 26 25 25 25 25 25 24 23 23 24 24 23 21 20 19 18 17 16 15 14 14 13 13 14 14 14 14 15 15 15 14 14 14 14 13 12 12 11 11 11 11
38 38 36 35 34 34 34 34 34 34 34 33 33 32 32 31 31 31 32 32 31 30 29 29 29 28 27 27 26 25 25 25 26 26 25 24 24 25 25 24 22 20 18 17 16 15 14 13 13 13 14 15 16 16 17 17 17 16 16 16 16 15 14 14 13 13 13 13 12
37 37 37 36 35 34 34 34 34 33 33 32 32 32 32 31 30 30 31 31 31 31 30 29 29 28 27 27 27 26 26 25 26 26 26 25 25 25 25 24 21 19 18 17 16 15 14 14 14 14 15 17 18 18 19 19 19 19 19 18 18 17 16 15 15 16 16 15 15
37 37 37 37 36 35 34 33 33 33 33 32 32 32 31 31 30 29 30 30 31 32 31 30 29 28 28 27 28 27 27 26 26 26 26 26 24 24 24 23 21 19 18 17 16 16 15 15 15 16 17 18 19 20 21 21 22 21 21 20 19 19 18 18 18 19 19 17 16
37 37 37 37 36 35 33 33 33 33 33 33 32 31 31 30 29 29 29 29 30 32 32 31 30 29 28 28 29 29 28 26 26 25 25 25 23 23 23 23 22 20 19 18 17 16 16 17 17 18 18 19 19 20 21 22 23 22 22 21 21 21 20 19 20 20 20 18 17
36 37 37 36 35 35 34 33 32 32 33 32 32 31 31 30 30 29 29 29 30 31 32 31 31 30 29 29 29 29 28 27 26 26 25 24 23 23 23 23 23 21 20 18 17 17 17 18 18 18 18 19 19 20 21 21 22 23 22 21 21 21 21 20 19 19 19 18 18
Wind_Direction
193 192 192 192 192 191 192 192 192 191 190 189 190 190 190 189 191 193 194 195 196 198 200 203 204 204 204 204 205 207 207 207 206 205 206 207 208 209 209 209 209 209 209 210 212 213 214 214 213 214 214 216 217 219 222 224 225 226 227 228 229 231 232 234 235 237 238 240 242
193 192 192 191 191 191 190 190 190 190 190 190 190 190 190 190 191 193 194 195 197 199 201 203 204 204 204 204 205 207 207 207 205 204 204 205 207 208 208 209 209 209 209 210 211 212 212 212 211 212 213 215 216 218 220 223 225 226 227 228 228 229 230 232 234 236 239 242 243
193 192 191 190 190 189 189 189 189 189 189 189 190 190 190 191 192 193 194 196 197 199 201 203 204 204 204 204 205 206 207 207 205 203 203 204 205 207 207 208 208 209 209 209 210 211 211 210 210 210 212 213 214 215 217 221 223 225 225 226 227 227 227 228 231 234 237 239 239
192 191 190 190 190 189 188 188 188 188 188 188 188 189 190 191 192 193 194 195 197 199 201 203 203 204 204 203 204 206 207 207 205 203 202 203 204 205 207 207 207 207 208 208 209 209 210 209 209 210 210 211 212 213 216 219 221 222 223 224 225 225 225 226 229 231 232 233 233
192 191 191 190 190 189 189 188 187 187 187 186 187 188 189 191 192 193 194 195 197 199 202 203 203 203 203 203 203 205 206 206 205 204 203 203 203 205 206 207 207 206 206 206 207 207 207 206 207 208 210 210 211 212 214 217 219 220 221 222 222 223 223 225 227 227 227 228 231
191 191 191 191 190 189 189 188 187 186 185 185 186 187 188 189 190 191 193 194 197 199 201 203 203 203 202 202 203 204 205 206 205 204 203 202 203 204 205 207 207 205 204 203 203 203 203 204 205 207 209 210 210 211 213 216 218 219 220 219 220 220 221 222 224 226 228 234 242
191 190 190 190 189 188 187 187 186 185 184 185 185 186 187 188 189 190 192 194 196 198 200 201 202 202 201 201 202 203 204 204 204 204 203 202 201 202 203 204 203 201 200 199 199 199 201 202 204 206 207 209 209 210 212 215 217 217 217 217 220 222 224 226 230 234 241 250 259
190 189 189 188 187 187 186 185 184 183 183 184 185 186 187 187 188 190 192 194 195 197 198 200 201 201 201 201 201 202 203 203 203 202 202 201 199 199 199 198 196 195 195 196 196 197 199 202 204 205 207 208 208 210 212 214 215 215 217 220 226 231 234 236 241 248 256 263 269
188 188 188 187 186 186 185 184 183 182 182 183 185 186 187 187 188 189 191 192 195 196 198 198 200 200 200 200 201 201 202 201 201 200 199 198 196 195 193 191 189 189 191 194 196 197 199 201 203 205 207 208 208 210 212 214 216 220 225 231 237 241 245 248 253 259 265 271 276
185 186 186 185 184 184 184 183 182 182 182 182 183 185 186 187 188 189 191 192 194 195 195 196 197 197 198 199 199 199 199 199 198 197 196 194 192 190 188 186 185 186 188 192 195 197 198 200 201 203 206 208 210 212 215 219 224 231 237 242 245 249 252 257 262 267 272 277 280
184 184 184 183 182 182 181 180 180 181 181 181 182 183 184 186 187 189 191 191 191 191 192 193 193 194 195 196 195 195 195 195 193 192 190 189 188 186 185 184 184 185 187 190 193 196 198 199 200 202 205 209 213 216 221 227 232 238 242 245 248 251 255 261 265 270 273 276 278
183 182 182 181 181 180 179 178 178 179 180 180 181 182 183 185 187 188 188 188 188 188 189 190 190 191 191 191 190 190 190 190 189 187 185 184 183 182 181 182 183 185 187 189 192 195 197 199 201 204 208 212 217 221 225 229 232 236 238 242 245 250 255 259 262 265 267 270 273
181 180 179 179 179 178 177 177 177 178 179 180 180 181 182 184 186 186 186 185 185 185 185 187 188 188 187 185 183 183 183 184 183 181 179 178 178 178 178 179 181 183 186 188 192 195 197 200 205 209 213 217 221 223 225 225 226 228 231 234 238 243 246 251 254 256 261 267 276
178 177 177 177 176 176 176 176 176 177 178 178 179 180 181 183 184 184 183 183 182 181 181 183 184 184 181 178 176 176 177 177 177 176 174 173 174 175 176 177 179 182 185 188 192 196 200 205 210 214 218 220 219 218 217 217 218 219 221 223 226 231 236 239 245 252 262 276 286
176 175 175 175 174 174 175 175 175 176 177 177 178 179 179 180 181 181 181 180 179 179 178 178 177 177 175 173 173 173 173 172 172 171 170 170 172 174 175 176 179 182 185 189 193 198 204 208 211 213 213 212 210 208 206 205 204 206 209 216 223 231 237 243 253 264 277 288 295
174 174 173 173 173 173 173 174 174 174 175 176 177 177 177 177 177 177 177 177 176 175 174 172 170 169 170 171 172 171 170 169 168 168 168 168 170 173 175 178 181 184 187 189 191 194 196 198 197 197 196 196 195 193 191 190 192 198 208 220 234 245 254 264 273 281 288 296 303
172 172 172 172 172 172 173 173 173 173 173 174 175 175 175 174 173 173 174 173 171 169 167 167 166 166 166 168 170 170 169 167 167 167 167 169 171 174 177 180 183 184 184 184 183 182 181 179 178 178 180 181 181 180 181 186 193 200 210 224 239 252 263 272 280 288 297 310 318
171 171 171 171 171 171 172 172 171 171 172 173 173 173 172 171 170 169 170 169 167 164 162 162 163 165 166 167 169 170 170 168 167 168 169 172 174 176 178 181 182 181 180 178 177 175 174 172 171 171 172 174 175 178 183 191 197 202 206 212 223 235 248 262 276 289 307 320 323
170 170 170 170 171 170 170 169 169 169 170 171 171 170 170 169 168 166 165 164 163 161 159 158 160 163 165 167 168 170 171 170 170 171 173 175 176 176 176 177 177 177 178 178 176 174 173 171 170 171 173 176 179 182 186 191 194 195 195 196 200 205 215 228 244 267 298 314 318
169 169 170 170 169 168 167 167 167 168 168 169 168 167 167 166 166 163 161 159 159 159 158 158 158 160 162 165 167 168 170 171 171 172 173 174 174 173 173 172 173 174 175 176 175 174 173 170 170 172 177 182 185 186 186 186 185 183 181 180 180 182 189 198 213 251 304 317 320
169 169 169 168 167 165 165 165 165 166 166 166 165 164 163 163 162 161 158 156 156 157 158 158 159 159 161 163 164 164 165 168 169 169 170 171 171 171 170 170 170 170 171 173 174 174 172 170 170 174 181 188 191 190 187 184 180 177 173 171 168 168 168 172 177 335 334 330 327
168 168 167 166 164 163 163 163 163 164 163 163 162 161 159 159 158 157 156 156 156 157 158 159 160 161 162 162 161 160 160 162 164 165 167 167 168 169 169 168 168 168 169 171 172 170 169 169 171 177 184 191 192 189 185 182 181 178 172 163 151 134 110 78 42 14 356 344 345
166 165 164 163 162 161 161 161 161 161 161 160 158 156 155 155 155 155 155 155 156 157 157 158 159 160 160 159 159 158 157 157 159 161 164 166 166 166 166 166 166 166 167 168 168 168 168 169 172 180 188 191 184 177 173 175 175 169 153 137 117 90 68 57 42 31 23 27 36
163 162 162 161 161 160 160 160 159 158 157 155 153 152 152 152 153 153 154 154 155 155 154 154 155 156 156 156 157 157 156 156 157 159 161 163 163 163 163 164 164 165 165 167 169 172 173 172 174 178 184 184 172 163 160 161 155 137 120 109 92 74 65 62 53 50 55 63 59
160 160 159 159 159 159 159 158 156 155 154 152 150 150 150 151 151 152 152 152 152 151 150 150 151 152 152 153 154 156 156 157 158 159 159 160 161 161 161 161 162 164 166 170 174 177 177 176 175 176 176 172 163 154 148 141 123 108 99 90 78 72 72 70 64 64 67 66 60
158 158 157 158 157 157 156 155 154 152 151 149 149 148 149 150 150 150 149 148 148 148 148 148 148 149 149 151 152 154 156 157 158 158 158 158 158 159 160 160 162 165 169 172 175 175 173 172 173 173 171 167 157 147 139 130 114 101 91 80 75 75 76 76 72 70 68 63 59
156 155 155 156 155 154 154 152 151 149 148 147 147 147 147 148 147 147 146 145 146 147 147 147 146 147 148 150 152 153 154 155 156 156 156 157 157 158 159 160 163 165 167 168 168 168 167 166 165 165 163 158 148 141 136 128 114 100 90 84 84 86 86 84 81 78 74 67 63
153 153 154 154 153 152 151 149 148 146 146 146 146 146 146 145 145 144 144 145 146 146 145 144 145 146 148 150 152 154 155 155 155 155 155 156 158 159 160 161 162 163 162 160 161 162 163 162 159 156 151 143 137 134 131 123 110 99 94 96 99 101 100 96 91 87 83 75 68
152 152 152 151 150 149 148 147 145 145 145 145 145 145 144 144 144 144 145 145 145 144 143 143 145 146 148 149 151 154 155 155 155 155 156 157 158 160 161 160 159 158 156 154 156 159 160 158 154 148 141 135 133 132 129 121 111 105 103 103 104 106 107 103 96 90 84 76 69
151 150 149 148 147 146 145 145 145 144 144 144 144 143 143 143 143 144 145 145 145 144 145 145 147 147 148 150 152 153 153 154 155 156 157 158 158 158 157 156 155 152 151 152 154 155 155 152 146 138 132 129 127 126 122 115 109 105 102 100 100 101 102 100 95 88 81 75 70
149 148 147 145 144 144 144 144 144 144 143 143 143 143 142 142 143 144 145 145 145 146 148 149 149 149 150 151 152 152 152 153 155 157 158 158 156 153 151 150 148 146 146 148 149 148 145 141 135 130 125 121 117 114 110 107 104 101 99 98 99 99 98 96 91 85 80 78 80
147 146 144 143 143 143 143 143 143 143 143 142 142 142 142 142 143 144 145 146 147 147 149 150 149 149 150 151 151 152 152 153 155 156 157 155 151 148 146 143 141 140 140 141 140 137 133 128 124 121 118 114 110 108 107 106 104 103 102 102 103 102 99 93 87 82 82 83 90
145 144 143 142 142 142 142 142 142 142 142 142 142 141 141 142 143 144 145 146 147 148 149 150 149 149 149 150 150 151 152 154 154 154 154 152 149 145 141 138 135 135 135 135 133 128 125 121 119 116 114 112 111 111 111 110 109 109 108 108 108 106 102 95 88 85 86 89 94
143 142 141 141 141 141 141 142 142 142 141 141 141 141 142 142 143 144 145 146 147 148 149 149 150 150 151 152 152 152 152 153 152 152 151 150 147 143 138 133 131 131 132 132 130 127 125 122 121 120 119 119 118 118 116 114 114 113 113 113 111 109 106 101 95 91 91 92 95
142 141 141 140 140 140 141 141 141 141 140 140 140 142 143 144 144 144 145 145 145 145 145 146 148 149 150 152 153 154 153 151 150 149 149 148 145 139 133 129 128 130 132 131 130 129 128 127 126 126 127 126 124 121 118 116 116 116 117 117 115 113 110 107 103 99 95 93 92
143 142 141 140 140 140 140 140 140 140 140 140 141 141 143 144 145 145 145 145 144 143 142 144 146 147 148 150 151 152 151 150 148 147 146 145 141 134 129 126 127 129 131 130 130 129 129 128 129 130 129 126 122 119 117 116 116 118 118 117 115 113 111 110 106 101 96 92 88
143 142 141 140 140 140 140 140 140 140 140 141 141 142 143 143 143 145 146 146 144 142 142 144 145 146 147 148 147 147 148 148 146 144 142 140 136 131 127 126 126 128 129 128 127 126 125 125 126 127 126 123 119 117 116 116 116 117 117 115 113 111 109 105 99 93 88 85 84
144 143 141 141 140 140 140 140 140 140 140 141 142 143 144 144 143 144 146 147 145 143 142 143 143 144 145 145 143 142 143 144 143 141 138 135 132 129 127 126 126 127 126 124 122 120 119 119 120 121 119 118 117 117 117 116 116 115 115 113 111 109 105 100 94 88 84 82 82
144 143 142 141 140 140 140 141 141 141 142 142 142 143 144 144 143 144 146 147 146 145 143 142 141 141 142 141 139 137 137 139 140 139 136 133 131 130 127 125 124 123 122 121 118 117 116 115 116 116 115 116 117 117 117 116 115 114 114 113 110 107 104 99 95 91 87 84 81
143 143 142 141 140 141 141 141 142 142 143 143 142 142 143 143 143 143 144 145 144 143 142 140 139 139 139 138 136 135 134 135 136 135 134 132 131 128 125 123 122 122 121 120 119 117 115 114 114 114 114 116 117 117 117 116 115 114 114 113 112 109 106 103 100 97 93 88 83
143 142 142 141 141 141 141 141 141 142 143 143 143 142 143 142 142 141 141 140 140 139 138 138 137 137 137 136 135 134 133 132 132 133 132 130 128 125 123 122 123 123 122 122 120 118 116 115 114 114 115 116 116 116 117 116 116 115 115 115 115 112 110 107 105 102 98 92 86
Height
737 739 741 742 744 745 747 748 750 751 752 754 755 756 757 758 760 761 762 764 765 766 767 768 769 771 772 773 775 776 777 778 780 781 782 783 785 786 787 788 789 791 792 793 795 796 797 798 799 800 801 802 803 803 804 805 805 806 806 806 806 807 807 808 808 809 810 810 811
735 737 739 741 742 744 746 747 749 750 751 752 753 754 756 757 758 760 761 762 763 765 766 767 768 770 771 772 774 775 776 777 779 780 781 783 784 785 786 787 789 790 791 792 794 795 796 797 798 799 800 801 802 803 804 804 805 805 805 806 806 806 806 807 807 808 809 809 810
734 735 737 739 741 742 744 745 746 748 749 751 752 753 755 756 757 759 760 761 762 764 765 766 767 769 770 771 773 774 776 776 778 779 781 782 783 785 786 787 788 789 791 792 793 794 795 796 797 798 799 800 801 802 803 804 804 805 805 805 805 805 806 806 806 807 807 808 809
732 734 735 737 738 740 741 743 744 746 747 749 751 752 754 755 756 758 759 761 762 763 764 765 766 768 769 771 772 773 775 776 777 779 780 781 783 784 785 786 787 789 790 791 792 793 795 796 796 798 799 800 801 801 802 803 803 804 804 804 805 805 805 805 805 806 806 807 807
730 732 733 735 736 737 739 741 742 744 746 748 750 751 753 754 756 757 759 760 761 762 763 764 766 767 768 770 771 772 774 775 776 778 779 781 782 783 785 786 787 788 789 791 792 793 794 795 796 797 798 799 800 801 801 801 802 803 803 804 804 804 804 804 805 805 806 806 806
728 730 731 733 735 736 738 740 741 743 745 747 749 750 752 753 755 756 757 759 760 761 762 764 765 766 768 769 771 772 773 774 776 777 779 780 781 783 784 785 786 787 789 790 791 792 793 794 795 796 797 798 799 800 800 801 801 802 803 803 803 803 804 804 805 805 806 806 806
726 729 731 732 734 736 738 739 741 742 744 746 747 749 750 752 753 755 756 758 759 761 762 763 764 766 767 768 770 771 772 774 775 776 778 779 781 782 783 784 786 787 788 789 790 791 792 794 795 796 796 797 798 799 799 800 801 801 802 802 802 803 803 804 804 805 805 805 806
726 728 730 731 733 735 736 738 740 742 743 745 746 747 749 751 752 754 756 757 758 760 761 762 764 765 766 768 769 770 772 773 775 776 777 778 780 781 782 784 785 786 787 788 789 791 792 793 794 795 795 796 797 798 798 799 800 801 801 802 802 802 803 803 804 804 804 804 804
726 727 729 731 732 734 736 737 739 741 742 744 745 746 748 750 751 753 755 756 757 759 760 761 763 764 766 767 768 770 771 773 774 775 776 778 779 780 781 783 784 785 786 787 789 790 791 792 793 794 795 795 796 797 798 799 800 800 801 801 801 802 802 803 803 803 803 803 803
724 726 728 730 732 733 735 737 738 740 741 743 745 746 748 750 751 752 754 755 757 758 760 761 762 764 765 766 768 769 771 772 774 775 776 777 778 780 781 782 783 784 786 787 788 789 790 791 792 793 794 795 796 797 797 798 799 800 800 800 801 801 801 802 802 802 802 802 803
722 725 726 729 731 732 734 736 738 740 741 743 744 746 748 749 751 752 753 755 756 758 759 761 762 763 765 766 767 769 770 771 773 774 776 777 778 779 781 781 783 784 785 786 788 789 790 791 792 793 794 794 795 796 797 798 798 799 799 800 800 800 801 801 801 801 802 802 802
721 724 726 728 730 731 733 735 737 739 741 742 744 746 747 749 750 751 753 755 756 757 759 760 761 763 764 765 767 768 770 771 772 774 775 776 778 779 780 781 783 784 785 786 787 788 789 790 791 792 793 794 795 795 796 797 797 798 798 799 799 799 800 800 801 801 801 801 801
721 723 725 727 729 731 733 735 736 738 740 741 743 745 746 748 750 751 753 754 756 757 759 760 761 762 764 765 766 768 769 771 772 773 775 776 777 779 780 781 782 783 785 786 786 788 789 790 791 792 792 793 794 795 795 796 796 797 797 798 798 799 799 800 800 801 801 801 801
720 722 724 726 728 730 732 734 736 738 739 741 743 744 746 748 749 751 752 753 755 756 758 760 761 762 763 765 766 767 769 770 771 773 774 776 777 778 780 781 782 783 784 785 786 787 788 790 791 791 792 793 793 794 795 795 796 796 797 797 798 798 799 800 800 800 801 801 801
719 721 723 725 727 729 731 733 735 737 739 740 742 744 746 747 749 750 751 753 755 756 758 759 761 762 763 765 766 767 769 770 771 772 774 775 776 778 779 781 782 783 784 785 786 787 788 789 790 791 792 792 793 794 794 795 795 796 796 797 798 798 799 799 800 800 800 801 801
719 721 722 724 726 729 731 732 735 736 738 740 741 743 745 747 748 750 751 753 754 756 757 759 761 762 764 765 766 767 768 770 771 772 773 775 776 778 779 780 781 783 784 785 786 787 788 789 790 791 791 792 793 793 794 795 795 796 796 797 797 798 798 799 799 800 800 800 800
718 720 721 724 726 728 730 732 734 736 737 739 741 743 745 746 748 749 751 752 754 756 757 759 760 762 763 765 766 767 768 770 771 772 773 775 776 777 779 780 781 783 784 785 786 787 788 789 790 791 791 792 792 793 794 795 795 796 796 797 797 798 798 799 799 799 800 800 800
716 719 721 723 725 727 729 731 733 735 736 739 741 742 744 746 747 749 751 752 753 755 757 758 760 761 763 765 766 767 769 770 771 772 773 775 776 777 779 780 781 783 784 785 786 787 788 789 789 790 791 792 793 793 794 795 795 796 796 797 797 797 798 798 799 799 799 800 800
716 718 720 722 724 726 728 730 732 734 736 738 740 742 744 745 747 749 750 752 753 754 756 758 760 761 763 765 766 767 769 770 771 772 774 775 776 778 779 780 781 783 784 785 786 787 787 788 789 790 791 792 792 793 794 794 795 796 796 796 797 797 798 798 798 799 799 799 799
715 717 719 721 723 726 727 730 731 734 736 738 740 741 743 745 747 748 750 751 753 754 756 757 760 761 763 765 766 767 769 770 771 772 774 775 776 778 779 780 781 782 783 784 786 786 787 788 789 790 791 791 792 793 793 794 795 795 796 796 797 797 798 798 798 799 799 799 799
714 716 719 721 723 725 727 729 731 734 736 738 740 741 743 745 746 748 749 751 752 754 756 757 759 761 763 765 766 767 769 770 771 773 774 775 776 777 779 780 781 782 783 784 785 786 787 788 789 790 791 791 792 792 793 794 794 795 796 796 797 797 798 798 799 799 799 799 799
714 716 719 721 723 725 727 729 731 734 736 737 739 741 743 744 746 747 749 751 752 754 756 758 760 761 763 765 766 767 769 770 771 773 774 775 776 777 778 780 781 782 783 784 785 786 787 788 789 790 790 791 791 792 793 794 794 795 796 796 797 797 798 798 799 799 799 799 799
714 716 719 721 723 725 727 729 731 733 736 737 739 741 742 744 746 747 749 751 753 755 756 758 760 762 763 765 766 767 769 770 771 773 774 775 776 777 778 780 781 782 783 784 785 786 787 788 789 790 790 791 791 792 793 794 794 795 796 796 797 798 798 798 799 799 799 799 799
713 716 719 721 723 725 727 729 731 733 735 737 739 740 742 743 745 747 749 751 753 755 757 759 761 762 764 765 766 767 768 770 771 773 774 775 776 777 779 780 781 782 783 784 785 786 787 788 788 789 790 791 791 792 793 794 794 795 796 796 797 797 798 798 798 798 799 799 799
713 716 718 721 723 725 727 729 731 733 735 737 738 740 741 743 745 747 750 752 754 756 757 759 761 762 763 765 766 767 769 770 771 772 773 775 776 777 779 780 781 782 783 784 785 786 787 788 788 789 790 790 791 792 793 794 794 795 796 796 796 797 797 798 798 798 798 799 799
713 716 718 721 723 725 727 729 731 732 735 736 738 740 741 744 746 748 750 752 754 756 757 759 760 761 763 765 766 768 769 770 771 772 773 774 776 777 779 780 781 782 783 784 786 786 787 788 789 789 790 790 791 792 793 794 794 795 796 796 796 797 797 797 798 798 798 799 799
713 716 718 720 722 724 726 728 730 732 734 736 738 740 742 744 746 748 750 751 753 755 757 759 760 762 763 765 766 768 769 771 772 772 773 774 776 777 779 780 781 782 784 785 786 786 787 788 789 789 790 791 791 792 793 794 794 795 796 796 796 797 797 797 798 798 798 799 799
713 715 718 720 722 724 726 728 730 732 734 736 738 740 742 744 746 747 749 751 753 756 757 759 761 762 764 765 767 768 769 771 772 773 774 775 776 778 779 781 781 783 784 785 786 786 787 788 789 790 790 791 792 792 793 794 795 795 796 796 796 797 797 798 798 798 799 799 799
712 715 717 720 722 724 726 728 730 732 734 736 738 740 742 744 746 747 749 751 753 756 757 759 761 762 764 766 767 768 769 770 771 773 774 776 777 778 780 781 782 783 784 785 786 786 787 788 789 790 791 792 792 793 794 794 795 796 796 796 797 797 797 798 798 799 799 799 800
712 714 717 719 721 724 726 728 730 732 734 736 738 740 742 744 746 748 750 752 754 756 757 759 761 762 764 765 767 768 769 771 772 773 775 776 777 779 780 781 782 783 785 785 786 786 787 788 790 791 791 792 793 793 794 795 795 795 796 796 797 797 798 798 799 799 799 800 800
711 714 716 719 721 723 726 728 730 732 734 736 738 740 742 744 746 748 750 752 754 756 757 759 760 762 764 765 766 768 769 771 772 774 775 776 777 779 780 781 782 784 785 786 786 787 788 789 790 791 791 792 793 793 794 794 795 795 796 796 797 798 798 799 799 799 799 800 800
711 713 716 718 721 724 726 728 730 732 734 736 738 740 742 745 747 749 751 752 754 756 757 759 760 762 764 765 767 768 769 771 772 774 775 776 777 779 780 781 783 784 785 786 787 788 789 790 790 791 791 792 793 793 794 794 795 796 796 797 797 798 799 799 799 800 800 800 800
711 713 716 718 721 724 726 728 730 732 734 736 738 741 743 745 747 749 751 753 754 756 757 759 760 762 763 765 767 768 770 771 772 774 775 776 777 779 780 782 783 784 786 786 787 788 789 790 790 791 791 792 793 793 794 795 795 796 796 797 798 799 799 800 800 800 801 801 801
710 713 716 718 721 724 726 728 730 732 734 736 739 741 743 745 747 750 751 753 755 756 757 759 760 762 763 765 766 768 770 771 773 774 776 776 778 779 781 782 784 785 786 787 788 789 789 790 791 791 792 792 793 793 794 795 795 796 797 798 799 799 800 801 801 801 801 801 801
710 712 716 718 721 723 726 728 730 732 734 737 739 741 743 746 747 749 751 753 755 756 758 760 761 762 764 766 767 768 770 771 773 775 776 777 778 780 781 782 784 786 787 787 788 789 790 790 791 791 792 793 793 794 794 795 796 796 797 798 799 800 801 801 801 802 802 802 802
709 712 715 718 720 723 725 728 730 732 735 737 739 742 744 746 748 750 751 753 755 756 758 760 761 763 765 766 768 769 770 771 773 775 776 778 779 780 781 783 785 786 787 788 789 789 790 791 791 792 792 793 793 794 795 795 796 797 798 799 800 801 801 801 802 802 803 803 803
709 711 714 717 720 723 725 728 730 732 735 737 740 742 744 746 748 750 751 753 754 756 758 760 761 763 765 766 768 770 771 772 774 775 777 778 779 780 781 783 785 786 788 789 789 790 790 791 791 792 792 793 793 794 795 796 796 797 798 799 800 801 802 802 803 803 803 803 804
709 711 714 717 720 723 726 728 730 733 735 738 740 742 744 746 748 750 751 753 754 756 758 760 762 764 765 767 769 771 772 773 775 776 777 779 780 781 782 783 785 787 788 789 790 790 791 791 792 792 792 793 793 794 795 796 797 798 799 800 801 802 802 803 803 804 804 804 804
710 712 714 717 720 723 726 728 731 733 735 738 740 742 744 746 748 750 752 753 754 756 757 760 762 764 766 768 769 771 773 775 776 777 778 780 781 781 782 784 786 787 789 789 790 791 791 791 792 793 793 793 794 795 795 796 797 798 799 800 801 802 803 803 804 804 805 805 805
711 712 715 717 720 723 726 729 731 733 735 737 740 742 744 746 748 751 752 754 755 756 758 760 762 765 767 768 770 772 774 776 777 778 779 780 781 782 783 784 786 788 789 790 791 791 791 792 793 793 794 794 795 795 796 796 797 799 800 801 802 802 803 804 804 805 805 805 806
711 713 716 718 721 723 726 729 731 734 736 738 740 742 744 746 748 751 752 754 756 757 759 761 763 766 767 769 771 772 774 776 778 779 780 781 782 783 784 785 787 788 790 791 791 791 792 793 793 794 794 795 795 796 796 797 798 799 800 801 802 803 804 804 805 805 805 805 806